Weather Service Report


257 
ASUS46 KSTO 191115
RWRCA 

NORTHERN AND CENTRAL CA REGIONAL WEATHER ROUNDUP
NATIONAL WEATHER SERVICE SACRAMENTO CA 
300 AM PST SUN FEB 19 2017

NOTE: FAIR INDICATES FEW OR NO CLOUDS BELOW 12,000 FEET WITH NO
SIGNIFICANT WEATHER AND/OR OBSTRUCTIONS TO VISIBILITY.

CAZ001-003-191200-
NORTHWEST AREA
  
CITY           SKY/WX    TMP DP  RH WIND       PRES   REMARKS
CRESCENT CITY    N/A    N/A N/A N/A MISG      29.57R                  
UKIAH          LGT RAIN  44  42  93 SE5       29.77F                  
$$

CAZ006-505>513-191200-
BAY AREA
  
CITY           SKY/WX    TMP DP  RH WIND       PRES   REMARKS
SANTA ROSA     LGT RAIN  47  45  93 CALM      29.79S                  
SAN RAFAEL     N/A       49  MM  MM MISG
NAPA           LGT RAIN  50  45  83 W3        29.82R                  
CONCORD        LGT RAIN  50  45  83 S9        29.82S                  
OAKLAND CITY   N/A      MM  MM  MM MISG
OAKLAND        LGT RAIN  52  46  80 S7        29.83S                  
SAN FRAN CITY  N/A       50  MM  78 MISG
SAN FRAN ARPT  LGT RAIN  51  44  77 SE5       29.82R                  
LIVERMORE      CLOUDY    48  40  73 S6        29.82R                  
HAYWARD        CLOUDY    51  42  71 S6        29.83S                  
REDWOOD CITY   N/A       49  MM  84 MISG
MOFFETT ARPT   CLOUDY    48  45  89 SE3       29.85F                  
SAN JOSE ARPT  CLOUDY    49  42  77 SE3       29.84R                  
$$
CAZ034-037-514>518-191200-
CENTRAL COAST
  
CITY           SKY/WX    TMP DP  RH WIND       PRES   REMARKS
WATSONVILLE    CLOUDY    45  43  93 N3        29.86R                  
SALINAS        CLOUDY    47  41  80 CALM      29.85R                  
MONTEREY       MOCLDY    46  42  86 SE7       29.85R                  
SAN LUIS OBISP CLOUDY    52  45  77 NW3       29.84S                  
SANTA MARIA    CLOUDY    49  47  93 E3        29.85S                  
$$
CAZ015-016-191200-
NORTHERN SACRAMENTO VALLEY
  
CITY           SKY/WX    TMP DP  RH WIND       PRES   REMARKS
REDDING        CLOUDY    49  43  80 S23G29    29.64S                  
RED BLUFF      CLOUDY    49  42  77 SE28G39   29.68R                  
OROVILLE       CLOUDY    48  41  76 SE18G28   29.78F                  
$$
CAZ016>018-191200-
SOUTHERN SACRAMENTO VALLEY
  
CITY           SKY/WX    TMP DP  RH WIND       PRES   REMARKS
AUBURN         CLOUDY    43  39  87 SE8       29.82S                  
BEALE AFB      LGT RAIN  47  43  86 SE13      29.79F                  
LINCOLN        CLOUDY    46  41  81 SE8       29.81F                  
MARYSVILLE     LGT RAIN  47  43  86 SE14      29.81S                  
SAC INTL ARPT  LGT RAIN  47  46  97 SE6       29.81R                  
MATHER AIRPORT NOT AVBL                                               
DOWNTOWN SAC   N/A       47  MM  MM MISG
SAC EXEC ARPT  LGT RAIN  47  46  97 S3        29.82S                  
VACAVILLE      LGT RAIN  48  44  86 SW10      29.81S                  
TRAVIS AFB     LGT RAIN  47  46  95 SW7       29.80R                  
$$
CAZ019>021-191200-
SAN JOAQUIN VALLEY
  
CITY           SKY/WX    TMP DP  RH WIND       PRES   REMARKS
STOCKTON       MOCLDY    46  42  86 W5        29.83R                  
MODESTO        CLOUDY    48  39  71 N6        29.83R                  
MERCED         PTCLDY    45  38  76 NW5       29.82S                  
LEMOORE        CLOUDY    48  43  82 N13       29.83R                  
FRESNO         CLOUDY    49  38  65 NW13      29.82R                  
HANFORD        CLOUDY    49  43  80 NW9       29.82R                  
PORTERVILLE    PTCLDY    49  45  86 NW8       29.84R                  
BAKERSFIELD    CLOUDY    52  45  77 N8        29.82R                  
$$
CAZ011-012-071-191200-
NORTHERN MOUNTAINS
  
CITY           SKY/WX    TMP DP  RH WIND       PRES   REMARKS
YREKA          CLOUDY    41  32  70 S17       29.51S                  
MOUNT SHASTA   LGT SNOW  35  32  88 E7        29.56F FOG     WCI  29  
ALTURAS        CLOUDY    35  32  88 SW3       29.57S                  
$$
CAZ011-012-071-191200-
SIERRA NEVADA MTNS
  
CITY           SKY/WX    TMP DP  RH WIND       PRES   REMARKS
BLUE CANYON    FLURRIES  30  28  92 S6        29.77R WCI  24          
TRUCKEE        MOCLDY    32  18  55 CALM      29.71R                  
TAHOE VLY ARPT LGT SNOW  32  27  81 S15G21    29.69R WCI  22          
MAMMOTH LAKES  FAIR      17  17  98 CALM      29.69S FOG              
$$
  

Return to Home page


Western Regional Climate Center, wrcc@dri.edu